[[{"header":{"parameterUnit":"m.s-1","parameterCategory":1,"la1":30.2991,"la2":30.254,"lo1":-89.0895,"lo2":-89.0444,"dy":0.0017,"dx":0.0017,"nx":28,"ny":28,"refTime":"2024-05-22T21:00:00:Z","depth":0,"parameterNumber":2,"parameterNumberName":"U-component_of_WINDS"},"data":[0,0,0,0,0,0,0,0,0,0,0,0,0,0,0,0,0,0,0,0,0,0,0,0,0,0,0,0,0,0,0,0,0,0,0,0,0,0,0,0,0,0,0,0,0,0,0,0,0,0,0,0,0,0,0,0,0,0,-1.8872,-1.8873,0,-1.8908,-1.8909,-1.8909,-1.8902,-1.8901,-1.8901,-1.89,-1.8938,-1.8939,-1.8941,0,0,0,0,0,0,0,0,0,0,0,0,0,-1.8799,-1.8801,-1.8872,-1.8873,-1.8873,-1.8908,-1.8909,-1.8909,-1.8902,-1.8901,-1.89,-1.89,-1.8937,-1.8939,-1.8941,0,0,0,0,0,0,0,0,0,0,0,0,0,-1.8833,-1.8801,-1.8872,-1.8874,-1.8874,-1.8908,-1.8909,-1.8909,-1.8902,-1.8901,-1.89,-1.8899,-1.8937,-1.8939,-1.8941,-1.8976,0,0,-1.8949,-1.895,0,0,0,0,0,0,0,0,-1.8831,-1.8835,-1.8873,-1.8874,-1.8874,-1.89,-1.8897,-1.8932,-1.8902,-1.8892,-1.89,-1.8899,-1.8926,-1.8929,-1.8938,-1.8978,-1.8979,-1.8949,-1.895,-1.8951,-1.8952,0,0,0,0,0,0,0,-1.8829,-1.8834,-1.8886,-1.8874,-1.8874,-1.8873,-1.8877,-1.8903,-1.8914,-1.8892,-1.8892,-1.8896,-1.8926,-1.8936,-1.8939,-1.898,-1.8949,-1.8951,-1.8952,-1.8953,-1.9052,-1.9053,0,0,0,0,0,0,-1.8825,-1.8832,-1.8885,-1.8888,-1.885,-1.8875,-1.888,-1.8892,-1.8914,-1.8916,-1.8897,-1.8896,-1.8932,-1.8936,-1.894,-1.8983,-1.8951,-1.8954,-1.8955,-1.905,-1.9052,-1.9053,0,0,0,0,0,0,-1.8824,-1.883,-1.8884,-1.886,-1.8866,-1.8878,-1.8892,-1.8894,-1.8903,-1.8917,-1.8919,-1.8905,-1.8931,-1.8937,-1.8967,-1.8984,-1.8955,-1.8957,-1.9049,-1.9051,-1.9052,-1.9068,0,0,0,0,0,0,-1.8822,-1.883,-1.8842,-1.886,-1.8868,-1.891,-1.8893,-1.8895,-1.8907,-1.8906,-1.8925,-1.8927,-1.8931,-1.8964,-1.897,-1.8987,-1.8959,-1.9048,-1.905,-1.9052,-1.9066,-1.907,-1.9073,0,0,0,0,0,-1.8819,-1.8845,-1.8843,-1.885,-1.8884,-1.8911,-1.8915,-1.8919,-1.8909,-1.8922,-1.8931,-1.8927,-1.8981,-1.8967,-1.8974,-1.8992,-1.9047,-1.9049,-1.9052,-1.9064,-1.9069,-1.9073,0,0,0,0,0,0,-1.8829,-1.8847,-1.8845,-1.8878,-1.8893,-1.8909,-1.8926,-1.8924,-1.8942,-1.894,-1.8945,-1.8949,-1.898,-1.8989,-1.8973,-1.9027,-1.9013,-1.9017,-1.902,-1.9025,-1.9028,-1.9025,-1.8961,0,0,0,0,0,-1.8835,-1.8855,-1.887,-1.8897,-1.8905,-1.8915,-1.8926,-1.8928,-1.8944,-1.895,-1.8962,-1.8978,-1.8999,-1.9012,-1.9032,-1.9068,-1.9072,-1.9084,-1.9087,-1.909,-1.9093,-1.9114,-1.9119,-1.9062,-1.9062,-1.9061,0,0,-1.8847,-1.886,-1.8872,-1.89,-1.8912,-1.8933,-1.892,-1.8942,-1.8958,-1.8954,-1.8983,-1.8993,-1.9011,-1.9044,-1.906,-1.9053,-1.9111,-1.9094,-1.9096,-1.9097,-1.9117,-1.9123,-1.9127,-1.9063,-1.9063,-1.9063,0,0,-1.8881,-1.8892,-1.8916,-1.8929,-1.8947,-1.8954,-1.8959,-1.8977,-1.8983,-1.9013,-1.901,-1.903,-1.9066,-1.9079,-1.9091,-1.9131,-1.9128,-1.9138,-1.9157,-1.9177,-1.9181,-1.9185,-1.92,-1.9205,-1.9141,-1.9141,-1.9141,0,-1.8894,-1.8925,-1.8929,-1.8952,-1.8965,-1.8962,-1.8987,-1.9,-1.9024,-1.9033,-1.9025,-1.9071,-1.9083,-1.912,-1.913,-1.9139,-1.9147,-1.9135,-1.918,-1.9184,-1.9188,-1.9202,-1.9208,-1.9142,-1.9142,-1.9142,-1.9142,0,-1.894,-1.8962,-1.898,-1.9003,-1.9018,-1.9042,-1.9051,-1.9065,-1.9067,-1.9074,-1.9105,-1.912,-1.9144,-1.9153,-1.9154,-1.919,-1.9186,-1.9179,-1.9164,-1.9195,-1.9208,-1.9214,-1.9144,-1.9143,-1.9143,-1.9143,0,0,-1.8979,-1.9006,-1.9012,-1.9023,-1.9044,-1.9062,-1.9087,-1.9109,-1.9122,-1.914,-1.9161,-1.9192,-1.9187,-1.92,-1.9203,-1.922,-1.9252,-1.9212,-1.9212,-1.9219,-1.9294,-1.9299,-1.9305,-1.9251,-1.9252,-1.9253,-1.9293,0,-1.9015,-1.9057,-1.9063,-1.9101,-1.9122,-1.9121,-1.9143,-1.9158,-1.9167,-1.9186,-1.9196,-1.9218,-1.9209,-1.9217,-1.9234,-1.9245,-1.9268,-1.9242,-1.9271,-1.9272,-1.9266,-1.9312,-1.9316,-1.9353,-1.9298,-1.9299,-1.93,0,-1.9061,-1.908,-1.912,-1.9139,-1.9148,-1.9168,-1.919,-1.9208,-1.9227,-1.9232,-1.9248,-1.9249,-1.9276,-1.9261,-1.9298,-1.9281,-1.9293,-1.93,-1.9302,-1.9304,-1.9287,-1.9315,-1.9365,-1.9371,-1.9308,-1.9307,-1.9307,0,-1.9085,-1.9121,-1.915,-1.9159,-1.9183,-1.9196,-1.9207,-1.9224,-1.9238,-1.9258,-1.9267,-1.929,-1.9303,-1.9321,-1.9329,-1.9317,-1.9366,-1.9351,-1.9371,-1.9371,-1.9381,-1.938,-1.9433,-1.939,-1.9389,-1.9389,-1.9389,0,-1.9124,-1.9148,-1.9161,-1.9179,-1.9207,-1.9214,-1.9242,-1.9252,-1.9268,-1.9289,-1.929,-1.9309,-1.9318,-1.934,-1.9346,-1.9376,-1.9382,-1.9387,-1.9389,-1.9387,-1.9386,-1.9395,-1.9392,-1.9391,-1.9391,-1.939,-1.939,0,-1.9155,-1.9165,-1.9196,-1.9216,-1.9222,-1.9242,-1.9259,-1.9277,-1.9286,-1.9312,-1.9318,-1.9332,-1.9358,-1.9368,-1.9398,-1.9403,-1.9438,-1.9437,-1.9431,-1.9432,-1.9451,-1.9449,-1.9511,-1.9519,-1.947,-1.9471,-1.9471,0,-1.9178,-1.9198,-1.922,-1.9234,-1.9244,-1.9267,-1.9281,-1.9289,-1.9304,-1.9328,-1.9343,-1.9368,-1.9388,-1.9429,-1.9442,-1.9466,-1.9466,-1.9486,-1.947,-1.9468,-1.9467,-1.9465,-1.9467,-1.9489,-1.949,-1.949,-1.949,0,-1.9219,-1.9224,-1.9244,-1.9267,-1.9284,-1.9302,-1.932,-1.9332,-1.9343,-1.936,-1.9385,-1.9401,-1.9433,-1.9458,-1.9483,-1.9495,-1.9495,-1.9496,-1.9502,-1.95,-1.9495,-1.9498,-1.9439,-1.9494,-1.9494,-1.9493,-1.9493,-1.9493,-1.9248,-1.9265,-1.9284,-1.9307,-1.9321,-1.9338,-1.9356,-1.9368,-1.9389,-1.9415,-1.9419,-1.9447,-1.9467,-1.95,-1.9513,-1.9536,-1.9531,-1.9539,-1.9541,-1.9543,-1.9544,-1.9492,-1.9541,-1.954,-1.954,-1.954,-1.954,0,-1.9289,-1.9301,-1.9322,-1.9347,-1.9366,-1.9365,-1.9385,-1.9401,-1.9425,-1.9443,-1.9463,-1.9494,-1.9519,-1.9535,-1.956,-1.9575,-1.9576,-1.9582,-1.958,-1.9583,-1.9547,-1.954,-1.9581,-1.9581,-1.9581,-1.9581,-1.9581,-1.9581,-1.9312,-1.9342,-1.9348,-1.9386,-1.9398,-1.9425,-1.9437,-1.9453,-1.9467,-1.9501,-1.9522,-1.9532,-1.955,-1.9577,-1.96,-1.9604,-1.9614,-1.962,-1.9624,-1.959,-1.9586,-1.9581,-1.9574,-1.9622,-1.9622,-1.9658,-1.9658,-1.9658]},{"header":{"parameterUnit":"m.s-1","parameterCategory":1,"la1":30.2991,"la2":30.254,"lo1":-89.0895,"lo2":-89.0444,"dy":0.0017,"dx":0.0017,"nx":28,"ny":28,"refTime":"2024-05-22T21:00:00:Z","depth":0,"parameterNumber":3,"parameterNumberName":"V-component_of_WINDS"},"data":[0,0,0,0,0,0,0,0,0,0,0,0,0,0,0,0,0,0,0,0,0,0,0,0,0,0,0,0,0,0,0,0,0,0,0,0,0,0,0,0,0,0,0,0,0,0,0,0,0,0,0,0,0,0,0,0,0,0,3.3174,3.3173,0,3.3145,3.3145,3.3144,3.3142,3.3142,3.3143,3.3143,3.3109,3.3108,3.3107,0,0,0,0,0,0,0,0,0,0,0,0,0,3.3223,3.3222,3.3174,3.3173,3.3173,3.3145,3.3145,3.3144,3.3142,3.3142,3.3143,3.3143,3.311,3.3108,3.3107,0,0,0,0,0,0,0,0,0,0,0,0,0,3.3198,3.3221,3.3174,3.3168,3.3168,3.3145,3.3145,3.3144,3.3142,3.3142,3.3143,3.3143,3.311,3.3109,3.3107,3.3086,0,0,3.3101,3.3101,0,0,0,0,0,0,0,0,3.32,3.3197,3.317,3.3169,3.3168,3.3148,3.315,3.3125,3.3142,3.3151,3.3143,3.3143,3.3121,3.3119,3.3112,3.3085,3.3083,3.3101,3.31,3.3099,3.3099,0,0,0,0,0,0,0,3.3201,3.3198,3.3162,3.3169,3.3168,3.3166,3.3164,3.3145,3.3134,3.3151,3.315,3.3147,3.3121,3.3114,3.3111,3.3083,3.3101,3.31,3.3099,3.3098,3.3037,3.3036,0,0,0,0,0,0,3.3205,3.3199,3.3163,3.3161,3.3185,3.3165,3.3162,3.3154,3.3134,3.3132,3.3147,3.3147,3.3117,3.3113,3.311,3.3085,3.3099,3.3098,3.3097,3.3037,3.3037,3.3036,0,0,0,0,0,0,3.3206,3.3201,3.3164,3.318,3.3175,3.3164,3.3154,3.3153,3.3146,3.3131,3.3129,3.3142,3.3117,3.3113,3.3093,3.3084,3.3097,3.3095,3.3038,3.3037,3.3036,3.3034,0,0,0,0,0,0,3.3207,3.3202,3.3195,3.318,3.3175,3.3148,3.3154,3.3152,3.3143,3.3143,3.3126,3.3124,3.3117,3.3095,3.3091,3.3081,3.3094,3.3039,3.3038,3.3037,3.3035,3.3033,3.3032,0,0,0,0,0,3.3209,3.3194,3.3194,3.319,3.3165,3.3147,3.3144,3.3138,3.3142,3.3135,3.3126,3.3124,3.3086,3.3093,3.3088,3.3078,3.3039,3.3038,3.3037,3.3035,3.3034,3.3032,0,0,0,0,0,0,3.3206,3.3192,3.3192,3.3172,3.3161,3.3147,3.3137,3.3136,3.3122,3.3123,3.3115,3.3111,3.3091,3.3083,3.3091,3.3057,3.3063,3.306,3.3064,3.3062,3.306,3.3062,3.3092,0,0,0,0,0,3.3204,3.3191,3.3179,3.3163,3.3158,3.3148,3.314,3.3137,3.3124,3.3119,3.3109,3.3096,3.3081,3.3071,3.3056,3.3034,3.303,3.3025,3.3023,3.3022,3.302,3.3008,3.3005,3.3032,3.3032,3.3032,0,0,3.3197,3.3188,3.3181,3.3162,3.3153,3.314,3.3144,3.313,3.3119,3.3116,3.3097,3.3089,3.3074,3.3053,3.3043,3.3045,3.3012,3.302,3.302,3.3018,3.3006,3.3004,3.3001,3.3031,3.3031,3.3031,0,0,3.3179,3.3171,3.3157,3.3149,3.3136,3.313,3.3126,3.3113,3.3108,3.3089,3.3086,3.3073,3.3048,3.3037,3.3028,3.3008,3.3006,3.3003,3.2995,3.2983,3.2981,3.2979,3.2971,3.2969,3.3001,3.3001,3.3001,0,3.3173,3.3154,3.315,3.3136,3.3127,3.3126,3.3111,3.3102,3.3085,3.3078,3.3082,3.305,3.304,3.3016,3.3011,3.3004,3.3,3.3004,3.2982,3.298,3.2978,3.2971,3.2968,3.3001,3.3001,3.3001,3.3001,0,3.3146,3.3133,3.3123,3.3108,3.3099,3.3084,3.3077,3.3068,3.3065,3.3059,3.3039,3.3027,3.301,3.3004,3.3001,3.298,3.2982,3.2984,3.2989,3.2975,3.2968,3.2965,3.3,3.3,3.3001,3.3001,0,0,3.3125,3.3109,3.3105,3.3098,3.3084,3.3073,3.3059,3.3044,3.3036,3.3024,3.3011,3.299,3.2992,3.2982,3.2977,3.2967,3.2951,3.297,3.2969,3.2966,3.2928,3.2926,3.2923,3.2951,3.295,3.295,3.2929,0,3.3105,3.308,3.3077,3.3054,3.3042,3.3041,3.3028,3.3018,3.3011,3.2999,3.2992,3.2977,3.298,3.2974,3.2964,3.2955,3.2943,3.2957,3.2937,3.2937,3.2941,3.2919,3.2918,3.2899,3.2926,3.2926,3.2925,0,3.3078,3.3068,3.3045,3.3033,3.3028,3.3016,3.3003,3.2991,3.2979,3.2975,3.2965,3.2962,3.2946,3.2953,3.293,3.2939,3.2931,3.2926,3.2925,3.2922,3.293,3.2916,3.2893,3.289,3.2921,3.2921,3.2922,0,3.3065,3.3044,3.3028,3.3022,3.3008,3.3,3.2994,3.2983,3.2974,3.2962,3.2956,3.2942,3.2933,3.2922,3.2915,3.292,3.2892,3.2898,3.2888,3.2888,3.2881,3.2882,3.2856,3.2877,3.2877,3.2877,3.2877,0,3.3043,3.3028,3.3022,3.3012,3.2996,3.2991,3.2975,3.2969,3.2959,3.2947,3.2945,3.2933,3.2925,3.2912,3.2906,3.2888,3.2885,3.288,3.2879,3.288,3.2881,3.2874,3.2875,3.2876,3.2876,3.2877,3.2877,0,3.3024,3.3019,3.3002,3.2991,3.2988,3.2976,3.2966,3.2956,3.295,3.2935,3.2931,3.2922,3.2907,3.2899,3.2879,3.2876,3.2855,3.2855,3.286,3.2859,3.2849,3.285,3.2818,3.2813,3.2837,3.2837,3.2837,0,3.301,3.3,3.2988,3.2981,3.2975,3.2963,3.2954,3.295,3.2941,3.2927,3.2918,3.2903,3.2891,3.2867,3.2857,3.2843,3.2841,3.2831,3.2839,3.2841,3.2841,3.2841,3.284,3.2829,3.2829,3.2829,3.2829,0,3.2986,3.2984,3.2973,3.2962,3.2953,3.2943,3.2933,3.2926,3.292,3.291,3.2896,3.2886,3.2867,3.2852,3.2837,3.2829,3.2828,3.2827,3.2824,3.2824,3.2828,3.2826,3.2855,3.2827,3.2827,3.2828,3.2828,3.2828,3.2969,3.296,3.2951,3.2939,3.2931,3.2922,3.2912,3.2906,3.2894,3.288,3.2877,3.2862,3.285,3.283,3.2822,3.2809,3.281,3.2806,3.2804,3.2803,3.2803,3.2831,3.2806,3.2806,3.2806,3.2806,3.2806,0,3.2945,3.2939,3.2928,3.2915,3.2906,3.2907,3.2897,3.2888,3.2875,3.2865,3.2853,3.2837,3.2822,3.2812,3.2798,3.2789,3.2788,3.2785,3.2785,3.2784,3.2802,3.2806,3.2786,3.2786,3.2786,3.2786,3.2786,3.2786,3.2931,3.2915,3.2913,3.2893,3.2887,3.2873,3.2867,3.2859,3.2851,3.2833,3.2821,3.2816,3.2806,3.279,3.2777,3.2774,3.2769,3.2766,3.2763,3.278,3.2782,3.2784,3.2788,3.2765,3.2765,3.2746,3.2746,3.2746]}]]